Location: Maccacari
(45.1333°N, 11.1333°E)
Time: 08:12:49
(UTC+00:00)

SR - Pass Details

Date: 23 January 2021
Orbit: 573 x 882 km, 66.7° (Epoch: 04 March)

Event Time Altitude Azimuth Distance (km) Brightness Sun altitude
Exits shadow 02:59:03 17° 84° (E) 1,775 ? -39.5°
Drops below altitude 10° 03:01:03 10° 62° (ENE) 2,225 ? -39.2°
Sets 03:04:09 0° 45° (NE) 3,219 ? -38.7°
